Location: Newark
(35.8967°N, 14.4625°E)
Time: 23:14:48
(UTC+00:00)

Envisat - Pass Details

Date: 30 October 2019
Orbit: 764 x 766 km, 98.1° (Epoch: 12 November)

Event Time Altitude Azimuth Distance (km) Brightness Sun altitude
Rises 17:55:01 0° 192° (SSW) 3,216 6.4 -22.0°
Reaches altitude 10° 17:57:34 10° 203° (SSW) 2,294 5.7 -22.5°
Maximum altitude 18:01:58 30° 264° (W) 1,355 4.9 -23.4°
Drops below altitude 10° 18:06:24 10° 324° (NW) 2,306 5.9 -24.3°
Sets 18:08:59 0° 336° (NNW) 3,237 6.6 -24.8°
